Stations météo

réclame
Mon MeteoGroup
Gottfrieding, Allemagne (10872): Température de l'air & dewpoint: 18.05.2019 03:00:00 - 24.05.2019 03:00:00 (CEST)Gottfrieding, Allemagne (10872): Température de l'air 5cm & Température de l'air -5cm: 18.05.2019 03:00:00 - 24.05.2019 03:00:00 (CEST)Gottfrieding, Allemagne (10872): Température de l'air -20cm & Température de l'air -100cm: 18.05.2019 03:00:00 - 24.05.2019 03:00:00 (CEST)Gottfrieding, Allemagne (10872): Vitesse du vent & gusts: 18.05.2019 03:00:00 - 24.05.2019 03:00:00 (CEST)Gottfrieding, Allemagne (10872): Direction du vent: 18.05.2019 03:00:00 - 24.05.2019 03:00:00 (CEST)Gottfrieding, Allemagne (10872): reduced air pressure: 18.05.2019 03:00:00 - 24.05.2019 03:00:00 (CEST)Gottfrieding, Allemagne (10872): visibility: 18.05.2019 03:00:00 - 24.05.2019 03:00:00 (CEST)Gottfrieding, Allemagne (10872): Ensoleillement: 18.05.2019 03:00:00 - 24.05.2019 03:00:00 (CEST)Gottfrieding, Allemagne (10872): Quantités de précipitations: 18.05.2019 03:00:00 - 24.05.2019 03:00:00 (CEST)
Date & Time tt [°C] td [°C] tt 5cm [°C] tt -5cm [°C] tt -20cm [°C] tt -100cm [°C] ff [km/h] ff [knt] fx [km/h] fx [knt] dd ppp [hPa] vv [km] sd [min] rr [mm]
24.05.2019 03:00:00 6,9 6,4 5,0 12,0 14,9 12,1 0 0 5 3 N 1017,9 10 0 0,0
24.05.2019 02:00:00 7,7 6,8 6,0 12,6 15,1 12,1 1 1 8 4 SW 1018,1 17 0 0,0
24.05.2019 01:00:00 8,3 7,0 6,8 13,4 15,3 12,1 6 3 8 4 W 1018,0 19 0 0,0
24.05.2019 00:00:00 9,5 8,2 7,0 14,2 15,5 12,1 5 3 7 4 SW 1018,0 6 0 0,0
23.05.2019 23:00:00 11,5 8,5 8,0 15,2 15,6 12,1 5 3 6 3 WSW 1017,9 19 0 0,0
23.05.2019 22:00:00 11,8 9,1 9,1 16,6 15,7 12,1 5 3 6 3 SW 1017,8 25 0 0,0
23.05.2019 21:00:00 15,3 8,7 11,4 18,4 15,6 12,2 2 1 6 4 WNW 1017,1 41 39 0,0
23.05.2019 20:00:00 17,9 7,1 16,1 20,3 15,4 12,2 5 3 10 5 W 1016,7 57 54 0,0
23.05.2019 19:00:00 18,3 6,4 19,3 22,1 15,2 12,2 6 3 13 7 NNW 1016,7 70 60 0,0
23.05.2019 18:00:00 19,1 7,0 21,6 22,8 14,9 12,2 4 2 15 8 N 1016,9 49 48 0,0
23.05.2019 17:00:00 17,9 5,3 19,5 23,1 14,5 12,2 6 4 14 7 WNW 1017,4 56 46 0,0
23.05.2019 16:00:00 17,7 5,5 21,7 23,4 14,1 12,2 8 4 19 10 NNW 1017,9 39 45 0,0
23.05.2019 15:00:00 17,6 4,8 21,4 23,3 13,6 12,2 6 3 17 9 WNW 1018,3 34 59 0,0
23.05.2019 14:00:00 16,7 4,9 20,4 22,1 13,2 12,2 8 4 22 12 NNW 1019,0 40 55 0,0
23.05.2019 13:00:00 15,9 5,9 19,0 21,4 12,8 12,2 12 7 22 12 NW 1019,6 26 55 0,0
23.05.2019 12:00:00 15,8 5,8 20,8 19,4 12,5 12,2 6 3 18 10 NNE 1019,9 31 59 0,0
23.05.2019 11:00:00 14,1 5,0 16,8 17,1 12,3 12,2 13 7 22 12 N 1020,5 22 59 0,0
23.05.2019 10:00:00 13,6 4,9 16,3 15,1 12,2 12,2 11 6 21 11 NNW 1020,6 33 60 0,0
23.05.2019 09:00:00 13,1 6,8 15,4 13,1 12,2 12,2 10 5 18 10 NW 1020,7 24 60 0,0
23.05.2019 08:00:00 10,2 7,6 11,4 10,5 12,3 12,2 11 6 14 8 WSW 1021,0 10 60 0,0
23.05.2019 07:00:00 8,3 7,5 8,4 8,9 12,5 12,2 10 6 15 8 WSW 1020,9 5 49 0,0
23.05.2019 06:00:00 6,5 6,3 5,7 8,8 12,7 12,2 14 8 17 9 W 1021,0 2,4 0 0,0
23.05.2019 05:00:00 7,0 6,8 5,7 9,2 12,9 12,2 12 6 15 8 WSW 1020,9 3,4 0 0,0
23.05.2019 04:00:00 7,2 6,9 5,9 9,7 13,0 12,2 11 6 15 8 W 1020,7 3,8 0 0,0
23.05.2019 03:00:00 7,7 7,2 6,5 10,3 13,1 12,2 13 7 14 8 WSW 1020,6 4,0 0 0,0
23.05.2019 02:00:00 8,7 8,2 7,7 10,8 13,3 12,2 9 5 14 8 WSW 1020,4 4,8 0 0,0
23.05.2019 01:00:00 8,9 8,3 7,6 11,3 13,4 12,2 12 7 14 8 W 1020,2 5 0 0,0
23.05.2019 00:00:00 10,7 9,7 9,2 12,1 13,4 12,2 11 6 16 8 W 1019,8 9 0 0,0
22.05.2019 23:00:00 12,1 10,6 11,6 12,6 13,5 12,2 13 7 16 9 WSW 1019,5 12 0 0,0
22.05.2019 22:00:00 12,3 10,8 11,8 12,9 13,5 12,2 11 6 20 11 W 1019,3 12 0 0,0
22.05.2019 21:00:00 12,6 10,9 12,1 13,2 13,5 12,2 14 8 24 13 W 1018,7 14 0 0,0
22.05.2019 20:00:00 12,9 11,0 12,3 13,6 13,5 12,2 13 7 23 12 W 1018,2 13 0 0,0
22.05.2019 19:00:00 12,7 11,2 12,4 13,8 13,5 12,2 14 8 29 15 W 1018,2 12 0 0,1
22.05.2019 18:00:00 13,1 11,0 13,1 14,2 13,5 12,2 21 12 31 17 W 1018,0 9 0 0,0
22.05.2019 17:00:00 13,2 10,5 13,9 14,2 13,4 12,2 20 11 32 18 W 1017,9 14 0 0,0
22.05.2019 16:00:00 12,9 10,6 13,6 14,1 13,4 12,2 27 14 34 18 WNW 1018,1 9 0 0,0
22.05.2019 15:00:00 12,7 10,3 13,1 13,8 13,4 12,2 22 12 36 19 W 1017,9 12 0 0,0
22.05.2019 14:00:00 13,3 10,8 14,2 13,7 13,4 12,2 24 13 32 17 W 1017,5 9 0 0,0
22.05.2019 13:00:00 12,4 10,5 12,7 13,3 13,4 12,2 22 12 33 18 W 1017,4 7 0 0,0
22.05.2019 12:00:00 12,2 10,3 12,2 13,2 13,4 12,2 21 11 34 18 W 1016,9 9 0 0,0
22.05.2019 11:00:00 12,2 10,0 12,1 13,0 13,4 12,2 24 13 34 18 W 1016,5 9 0 0,0
22.05.2019 10:00:00 12,1 10,4 12,3 12,7 13,5 12,1 22 12 32 18 W 1016,0 15 0 0,0
22.05.2019 09:00:00 12,0 10,5 11,9 12,5 13,5 12,1 21 11 34 18 W 1015,7 10 0 0,0
22.05.2019 08:00:00 11,7 10,7 11,5 12,4 13,6 12,1 17 9 24 13 W 1014,9 10 0 0,1
22.05.2019 07:00:00 11,7 10,7 11,2 12,4 13,7 12,1 18 10 27 15 W 1014,5 9 0 1,4
22.05.2019 06:00:00 11,5 10,9 11,2 12,5 13,7 12,1 20 11 29 16 W 1014,0 3,0 0 1,6
22.05.2019 05:00:00 11,7 10,9 11,3 12,6 13,8 12,1 19 11 29 16 W 1013,4 6 0 0,7
22.05.2019 04:00:00 11,8 10,9 11,4 12,7 13,9 12,1 19 10 28 15 W 1013,1 12 0 0,1
22.05.2019 03:00:00 11,7 11,1 11,4 12,8 14,0 12,1 18 10 28 15 W 1012,8 8 0 0,6
22.05.2019 02:00:00 11,8 10,9 11,5 12,9 14,0 12,1 20 11 33 18 W 1012,6 12 0 0,0
22.05.2019 01:00:00 11,9 10,8 11,5 13,0 14,1 12,1 24 13 33 18 WSW 1012,5 11 0 0,0
22.05.2019 00:00:00 12,1 11,0 11,8 13,2 14,2 12,1 22 12 33 18 WSW 1012,0 14 0 0,0
21.05.2019 23:00:00 12,2 11,3 11,9 13,4 14,3 12,1 21 11 32 17 W 1011,8 16 0 0,1
21.05.2019 22:00:00 12,2 11,4 11,8 13,6 14,3 12,1 21 12 31 17 WSW 1011,3 13 0 0,0
21.05.2019 21:00:00 12,6 11,4 12,2 13,8 14,4 12,1 22 12 37 20 WSW 1010,4 24 0 0,2
21.05.2019 20:00:00 13,0 11,3 12,3 14,2 14,4 12,0 27 14 36 19 WSW 1009,6 16 0 0,0
21.05.2019 19:00:00 13,1 11,5 12,7 14,7 14,4 12,0 18 10 34 19 WSW 1009,2 70 0 0,1
21.05.2019 18:00:00 13,0 11,7 13,2 15,1 14,4 12,0 23 12 35 19 WSW 1008,9 9 0 0,0
21.05.2019 17:00:00 13,2 11,7 13,8 15,3 14,3 12,0 19 11 38 20 WSW 1008,7 32 0 0,0
21.05.2019 16:00:00 13,7 11,2 14,7 15,2 14,3 12,0 26 14 41 22 WSW 1008,3 62 0 0,0
21.05.2019 15:00:00 12,8 11,2 13,2 15,2 14,3 12,0 20 11 42 23 WSW 1008,2 11 0 0,0
21.05.2019 14:00:00 13,2 11,1 14,3 14,6 14,3 12,0 27 14 45 24 WSW 1007,6 29 0 0,0
21.05.2019 13:00:00 12,8 10,4 13,3 14,5 14,3 12,0 27 14 46 25 WSW 1007,1 70 0 0,0
21.05.2019 12:00:00 12,4 10,8 12,4 14,2 14,3 12,0 32 18 49 26 WSW 1006,7 11 0 0,4
21.05.2019 11:00:00 12,3 10,8 12,4 13,9 14,3 12,0 30 16 47 25 WSW 1006,3 6 0 0,3
21.05.2019 10:00:00 12,5 11,3 12,5 13,8 14,4 11,9 31 17 45 25 W 1005,4 10 0 0,2
21.05.2019 09:00:00 12,5 11,5 12,4 13,5 14,5 11,9 22 12 37 20 W 1004,3 19 0 0,7
21.05.2019 08:00:00 12,1 11,3 12,0 13,3 14,6 11,9 23 12 37 20 WSW 1003,8 2,4 0 1,5
21.05.2019 07:00:00 12,2 11,7 11,9 13,3 14,7 11,9 20 11 31 17 W 1003,2 4,8 0 3,1
21.05.2019 06:00:00 12,4 12,0 12,3 13,5 14,8 11,9 18 10 25 13 W 1002,6 2,8 0 4,4
21.05.2019 05:00:00 12,5 12,3 12,4 13,7 15,0 11,9 9 5 15 8 WSW 1002,1 1,9 0 0,7
21.05.2019 04:00:00 12,5 11,9 12,3 13,7 15,1 11,9 13 7 18 10 WSW 1002,2 7 0 0,0
21.05.2019 03:00:00 12,5 11,7 12,3 13,8 15,2 11,8 13 7 21 11 WSW 1002,2 8 0 0,1
21.05.2019 02:00:00 12,2 11,7 12,1 13,9 15,3 11,8 13 7 16 9 W 1002,0 2,7 0 1,6
21.05.2019 01:00:00 12,4 11,7 12,1 14,1 15,5 11,8 12 7 24 13 NW 1002,2 1,8 0 4,6
21.05.2019 00:00:00 12,9 12,3 12,7 14,4 15,6 11,7 11 6 34 18 NW 1001,7 7 0 0,8
20.05.2019 23:00:00 13,0 11,5 12,5 14,6 15,8 11,7 10 6 25 13 W 1001,1 6 0 2,2
20.05.2019 22:00:00 12,8 12,2 12,6 14,9 15,9 11,7 15 8 24 13 W 1000,7 3,2 0 4,6
20.05.2019 21:00:00 13,3 12,5 13,2 15,4 16,0 11,7 5 3 15 8 NNW 1000,7 3,3 0 4,1
20.05.2019 20:00:00 13,0 12,3 12,9 16,3 16,0 11,6 9 5 16 8 S 1000,9 0,7 0 3,8
20.05.2019 19:00:00 13,9 12,2 13,6 16,9 16,1 11,6 9 5 16 9 WSW 1001,2 8 0 0,4
20.05.2019 18:00:00 14,0 12,5 13,8 17,3 16,1 11,6 13 7 20 11 WSW 1001,2 8 0 0,8
20.05.2019 17:00:00 14,5 11,9 14,8 18,1 16,0 11,6 16 9 21 11 SSW 1001,1 29 0 0,0
20.05.2019 16:00:00 15,8 11,8 16,8 19,0 16,0 11,6 7 4 11 6 S 1000,8 16 0 0,0
20.05.2019 15:00:00 15,2 12,1 16,7 18,1 15,9 11,6 7 4 12 7 SSE 1001,2 10 0 0,3
20.05.2019 14:00:00 15,2 13,5 16,2 18,1 15,9 11,5 8 4 11 6 ESE 1001,2 6 0 1,0
20.05.2019 13:00:00 14,9 12,2 14,8 18,4 15,8 11,5 9 5 11 6 NE 1001,2 4,2 0 0,2
20.05.2019 12:00:00 15,9 10,8 18,1 18,5 15,8 11,5 4 2 10 5 E 1000,8 13 0 0,0
20.05.2019 11:00:00 15,5 11,4 17,7 17,6 15,8 11,5 3 2 12 6 ENE 1001,0 15 0 0,0
20.05.2019 10:00:00 14,7 10,7 16,2 17,2 15,8 11,5 7 4 13 7 E 1000,9 19 0 0,0
20.05.2019 09:00:00 14,3 10,1 16,2 16,4 15,9 11,5 4 2 8 5 WNW 1000,8 20 0 0,0
20.05.2019 08:00:00 13,7 10,3 14,3 15,7 16,1 11,4 5 3 9 5 W 1000,5 20 0 0,0
20.05.2019 07:00:00 12,8 11,0 13,1 15,2 16,2 11,4 4 2 13 7 W 1000,8 11 0 0,0
20.05.2019 06:00:00 11,6 10,0 11,1 15,2 16,4 11,4 7 4 8 5 W 1001,0 13 0 0,0
20.05.2019 05:00:00 11,0 9,4 10,2 15,4 16,6 11,4 4 2 5 3 SSW 1001,4 19 0 0,0
20.05.2019 04:00:00 11,9 10,2 9,8 16,1 16,8 11,4 3 2 5 3 W 1001,2 15 0 0,0
20.05.2019 03:00:00 13,4 10,6 12,5 16,7 16,9 11,4 3 2 7 4 SW 1001,4 28 0 0,0
20.05.2019 02:00:00 13,9 10,6 13,2 17,0 17,1 11,4 4 2 10 5 SW 1001,8 27 0 0,0
20.05.2019 01:00:00 14,9 10,4 13,9 17,3 17,3 11,3 10 5 16 9 WSW 1001,9 38 0 0,0
20.05.2019 00:00:00 14,6 10,3 12,5 18,1 17,4 11,3 2 1 21 11 E 1001,8 33 0 0,0
19.05.2019 23:00:00 15,1 10,2 14,3 18,6 17,5 11,3 7 4 14 8 W 1001,7 30 0 0,0
19.05.2019 22:00:00 16,1 10,0 14,6 19,4 17,6 11,3 9 5 13 7 E 1001,1 41 0 0,0
19.05.2019 21:00:00 16,2 10,5 15,0 20,7 17,6 11,3 9 5 26 14 ENE 1001,1 56 5 0,0
19.05.2019 20:00:00 17,5 10,0 17,1 22,4 17,5 11,3 19 10 40 21 ENE 1001,1 59 55 0,0
19.05.2019 19:00:00 19,2 8,8 20,2 24,2 17,2 11,3 29 16 52 28 ENE 1000,7 31 46 0,0
19.05.2019 18:00:00 23,0 6,7 26,4 25,8 16,9 11,3 13 7 23 13 NE 999,5 40 60 0,0
19.05.2019 17:00:00 22,3 6,0 25,0 26,5 16,5 11,2 13 7 29 16 ESE 999,9 53 48 0,0
19.05.2019 16:00:00 23,4 7,8 29,7 27,5 16,1 11,2 9 5 21 12 E 1000,3 26 52 0,0
19.05.2019 15:00:00 22,7 6,9 27,1 27,2 15,6 11,2 8 5 24 13 NNE 1000,7 33 58 0,0
19.05.2019 14:00:00 21,6 6,4 27,5 26,3 15,2 11,2 10 6 22 12 E 1001,3 29 60 0,0
19.05.2019 13:00:00 21,0 5,7 26,8 24,8 14,8 11,2 11 6 20 11 E 1001,9 21 60 0,0
19.05.2019 12:00:00 20,6 6,8 26,4 22,9 14,5 11,2 7 4 18 10 ESE 1002,2 20 60 0,0
19.05.2019 11:00:00 19,2 7,7 23,4 20,7 14,3 11,2 5 3 13 7 SSE 1002,6 22 60 0,0
19.05.2019 10:00:00 18,8 8,4 22,9 18,3 14,3 11,2 5 3 16 8 SE 1002,8 20 60 0,0
19.05.2019 09:00:00 16,5 7,4 19,8 15,9 14,3 11,1 8 5 12 6 E 1003,5 22 60 0,0
19.05.2019 08:00:00 14,1 7,6 15,3 13,9 14,5 11,1 8 4 10 5 ENE 1003,8 18 59 0,0
19.05.2019 07:00:00 11,0 7,1 12,5 12,3 14,7 11,1 3 2 4 2 ESE 1004,0 18 54 0,0
19.05.2019 06:00:00 7,7 6,7 4,4 12,0 15,0 11,1 3 2 7 4 ESE 1004,5 13 0 0,0
19.05.2019 05:00:00 7,3 6,4 4,2 12,5 15,2 11,1 4 2 9 5 E 1004,5 14 0 0,0
19.05.2019 04:00:00 7,8 6,7 4,3 13,0 15,4 11,1 4 2 8 4 E 1004,4 14 0 0,0
19.05.2019 03:00:00 9,2 7,7 5,3 13,7 15,7 11,1 4 2 6 4 ENE 1004,3 22 0 0,0
19.05.2019 02:00:00 9,6 6,9 6,4 14,4 15,9 11,1 6 4 10 6 ENE 1004,1 24 0 0,0
19.05.2019 01:00:00 10,7 7,7 7,6 15,2 16,1 11,1 8 4 9 5 ENE 1004,2 34 0 0,0
19.05.2019 00:00:00 11,2 8,2 8,4 16,1 16,2 11,0 5 3 6 3 E 1004,6 39 0 0,0
18.05.2019 23:00:00 11,9 8,9 8,6 17,1 16,3 11,0 3 2 5 3 E 1004,6 60 0 0,0
18.05.2019 22:00:00 14,0 8,2 10,1 18,4 16,4 11,0 3 1 8 5 SSE 1004,2 57 0 0,0
18.05.2019 21:00:00 16,9 7,7 13,7 20,0 16,3 11,0 6 3 15 8 NNE 1003,4 70 0 0,0
18.05.2019 20:00:00 19,1 6,6 18,2 21,9 16,1 11,0 14 8 19 10 NE 1003,0 70 29 0,0
18.05.2019 19:00:00 21,1 4,2 22,2 23,5 15,9 11,0 14 8 24 13 ENE 1002,8 70 60 0,0
18.05.2019 18:00:00 21,4 3,7 24,7 24,6 15,5 11,0 12 6 22 12 E 1002,9 66 60 0,0
18.05.2019 17:00:00 21,3 4,2 26,0 24,9 15,1 11,0 10 5 22 12 ESE 1003,1 62 59 0,0
18.05.2019 16:00:00 21,1 3,6 24,9 25,9 14,6 11,0 15 8 30 16 E 1003,3 43 60 0,0
18.05.2019 15:00:00 21,2 3,8 24,6 26,0 14,1 11,0 14 8 26 14 E 1003,7 35 59 0,0
18.05.2019 14:00:00 21,1 4,6 28,7 24,8 13,7 11,0 6 4 22 12 SSE 1003,8 31 60 0,0
18.05.2019 13:00:00 20,7 7,3 25,3 23,5 13,3 11,0 13 7 23 13 E 1004,2 39 60 0,0
18.05.2019 12:00:00 18,9 7,1 24,4 21,4 13,0 11,0 9 5 21 12 ESE 1004,7 29 60 0,0
18.05.2019 11:00:00 17,3 7,0 21,8 19,0 12,8 11,0 10 6 19 10 E 1005,1 25 60 0,0
18.05.2019 10:00:00 16,1 7,7 19,4 16,3 12,8 11,0 14 8 20 11 ENE 1005,3 32 60 0,0
18.05.2019 09:00:00 14,3 7,8 16,6 13,8 12,9 11,0 10 6 16 9 ENE 1005,8 37 60 0,0
18.05.2019 08:00:00 11,8 7,0 13,3 11,8 13,0 11,0 9 5 14 8 ENE 1006,0 27 60 0,0
18.05.2019 07:00:00 10,0 7,3 10,3 10,5 13,2 10,9 9 5 11 6 ENE 1006,0 29 60 0,0
18.05.2019 06:00:00 7,1 6,0 4,4 10,5 13,4 10,9 6 4 11 6 ENE 1006,3 19 13 0,0
18.05.2019 05:00:00 7,4 6,0 5,2 11,0 13,6 10,9 10 6 12 7 NE 1006,1 25 0 0,0
18.05.2019 04:00:00 8,1 6,5 6,2 11,6 13,8 10,9 11 6 16 9 NE 1006,2 26 0 0,0
18.05.2019 03:00:00 8,6 6,8 6,8 12,1 14,0 10,9 11 6 18 10 NE 1006,2 28 0 0,0

tt = Température de l'air
td = dewpoint
tt 5cm = Température de l'air 5cm
tt -5cm = Température de l'air -5cm
tt -20cm = Température de l'air -20cm
tt -100cm = Température de l'air -100cm
ff = Vitesse du vent
fx = gusts
dd = Direction du vent
ppp = reduced air pressure
vv = visibility
sd = Ensoleillement
rr = Quantités de précipitations

stations d'obs. à proximité